Time,TemperatureF,DewpointF,PressureIn,WindDirection,WindDirectionDegrees,WindSpeedMPH,WindSpeedGustMPH,Humidity,HourlyPrecipIn,Conditions,Clouds,dailyrainin,SoftwareType,DateUTC
2013-03-24 00:00:00,30.6,25.0,29.97,NE,51,11.0,21.0,78,0.00,,,0.00,weatherlink.com 1.10,2013-03-24 05:00:00,
2013-03-24 00:15:00,30.7,25.0,29.97,NE,50,7.0,21.0,79,0.00,,,0.00,weatherlink.com 1.10,2013-03-24 05:15:00,
2013-03-24 00:30:00,30.7,25.0,29.96,NE,39,12.0,18.0,80,0.00,,,0.00,weatherlink.com 1.10,2013-03-24 05:30:00,
2013-03-24 00:45:00,30.8,26.0,29.97,ENE,65,11.0,22.0,81,0.00,,,0.00,weatherlink.com 1.10,2013-03-24 05:45:00,
2013-03-24 01:00:00,30.9,26.0,29.96,NE,49,13.0,19.0,81,0.00,,,0.00,weatherlink.com 1.10,2013-03-24 06:00:00,
2013-03-24 01:15:00,31.0,26.0,29.96,NNE,25,9.0,20.0,82,0.00,,,0.00,weatherlink.com 1.10,2013-03-24 06:15:00,
2013-03-24 01:30:00,30.9,26.0,29.97,NE,48,9.0,18.0,82,0.00,,,0.00,weatherlink.com 1.10,2013-03-24 06:30:00,
2013-03-24 01:45:00,30.9,26.0,29.97,NNE,32,6.0,17.0,83,0.00,,,0.00,weatherlink.com 1.10,2013-03-24 06:45:00,
2013-03-24 02:16:00,30.9,26.0,29.97,NNE,30,13.0,19.0,82,0.00,,,0.00,weatherlink.com 1.10,2013-03-24 07:16:00,
2013-03-24 02:31:00,31.1,26.0,29.98,ESE,105,5.0,18.0,82,0.00,,,0.00,weatherlink.com 1.10,2013-03-24 07:31:00,
2013-03-24 02:46:00,31.0,26.0,29.97,NE,37,8.0,15.0,82,0.00,,,0.00,weatherlink.com 1.10,2013-03-24 07:46:00,
2013-03-24 03:01:00,29.5,27.0,29.96,East,85,8.0,16.0,90,0.00,,,0.00,weatherlink.com 1.10,2013-03-24 08:01:00,
2013-03-24 03:31:00,28.6,27.0,29.95,ENE,71,3.0,15.0,93,0.00,,,0.00,weatherlink.com 1.10,2013-03-24 08:31:00,
2013-03-24 03:46:00,28.3,27.0,29.94,ENE,68,5.0,14.0,94,0.00,,,0.00,weatherlink.com 1.10,2013-03-24 08:46:00,
2013-03-24 04:01:00,28.1,27.0,29.93,NE,56,6.0,16.0,94,0.00,,,0.00,weatherlink.com 1.10,2013-03-24 09:01:00,
2013-03-24 04:16:00,28.0,27.0,29.91,NNE,25,8.0,16.0,95,0.00,,,0.00,weatherlink.com 1.10,2013-03-24 09:16:00,
2013-03-24 04:31:00,28.0,27.0,29.89,NNE,26,8.0,16.0,95,0.00,,,0.00,weatherlink.com 1.10,2013-03-24 09:31:00,
2013-03-24 04:46:00,28.0,27.0,29.89,ENE,73,8.0,17.0,95,0.00,,,0.00,weatherlink.com 1.10,2013-03-24 09:46:00,
2013-03-24 05:16:00,27.9,27.0,29.87,ENE,63,10.0,17.0,95,0.00,,,0.00,weatherlink.com 1.10,2013-03-24 10:16:00,
2013-03-24 05:31:00,27.9,27.0,29.86,ENE,65,12.0,16.0,95,0.00,,,0.00,weatherlink.com 1.10,2013-03-24 10:31:00,
2013-03-24 05:46:00,27.9,27.0,29.87,NNE,20,9.0,19.0,95,0.00,,,0.00,weatherlink.com 1.10,2013-03-24 10:46:00,
2013-03-24 06:01:00,28.0,27.0,29.85,East,82,5.0,14.0,95,0.00,,,0.00,weatherlink.com 1.10,2013-03-24 11:01:00,
2013-03-24 06:16:00,27.9,27.0,29.86,ENE,66,9.0,13.0,95,0.00,,,0.00,weatherlink.com 1.10,2013-03-24 11:16:00,
2013-03-24 06:31:00,28.0,27.0,29.86,ENE,63,4.0,13.0,95,0.00,,,0.00,weatherlink.com 1.10,2013-03-24 11:31:00,
2013-03-24 07:01:00,27.9,27.0,29.83,ENE,74,5.0,13.0,95,0.00,,,0.00,weatherlink.com 1.10,2013-03-24 12:01:00,
2013-03-24 07:20:00,28.0,27.0,29.84,ENE,72,9.0,15.0,95,0.00,,,0.00,weatherlink.com 1.10,2013-03-24 12:20:00,
2013-03-24 07:32:00,28.0,27.0,29.83,ENE,57,4.0,16.0,95,0.00,,,0.00,weatherlink.com 1.10,2013-03-24 12:32:00,
2013-03-24 07:46:00,28.1,27.0,29.82,ENE,57,5.0,12.0,95,0.00,,,0.00,weatherlink.com 1.10,2013-03-24 12:46:00,
2013-03-24 08:01:00,28.3,27.0,29.83,East,82,5.0,11.0,95,0.00,,,0.00,weatherlink.com 1.10,2013-03-24 13:01:00,
2013-03-24 08:16:00,28.5,27.0,29.81,NE,43,7.0,15.0,95,0.00,,,0.00,weatherlink.com 1.10,2013-03-24 13:16:00,
2013-03-24 08:32:00,28.8,28.0,29.79,NNE,24,6.0,14.0,95,0.00,,,0.00,weatherlink.com 1.10,2013-03-24 13:32:00,
2013-03-24 08:47:00,28.9,28.0,29.78,NNE,22,12.0,16.0,95,0.00,,,0.00,weatherlink.com 1.10,2013-03-24 13:47:00,
2013-03-24 09:02:00,29.0,28.0,29.76,East,80,7.0,19.0,95,0.00,,,0.00,weatherlink.com 1.10,2013-03-24 14:02:00,
2013-03-24 09:17:00,29.4,28.0,29.77,ENE,69,8.0,16.0,94,0.00,,,0.00,weatherlink.com 1.10,2013-03-24 14:17:00,
2013-03-24 09:32:00,29.5,28.0,29.75,NE,47,7.0,18.0,95,0.00,,,0.00,weatherlink.com 1.10,2013-03-24 14:32:00,
2013-03-24 09:47:00,29.8,29.0,29.75,NE,36,4.0,19.0,95,0.00,,,0.00,weatherlink.com 1.10,2013-03-24 14:47:00,
2013-03-24 10:02:00,29.9,29.0,29.74,NE,47,5.0,17.0,95,0.00,,,0.00,weatherlink.com 1.10,2013-03-24 15:02:00,
2013-03-24 10:17:00,29.9,29.0,29.74,ENE,57,11.0,18.0,95,0.00,,,0.00,weatherlink.com 1.10,2013-03-24 15:17:00,
2013-03-24 10:32:00,29.9,28.0,29.73,East,89,16.0,19.0,94,0.00,,,0.00,weatherlink.com 1.10,2013-03-24 15:32:00,
2013-03-24 10:47:00,30.1,29.0,29.70,NE,53,9.0,22.0,94,0.00,,,0.00,weatherlink.com 1.10,2013-03-24 15:47:00,
2013-03-24 11:05:00,30.5,29.0,29.71,ENE,64,13.0,20.0,94,0.00,,,0.00,weatherlink.com 1.10,2013-03-24 16:05:00,
2013-03-24 11:17:00,30.6,29.0,29.70,ENE,63,19.0,24.0,94,0.00,,,0.00,weatherlink.com 1.10,2013-03-24 16:17:00,
2013-03-24 11:32:00,30.5,29.0,29.69,ENE,70,9.0,21.0,94,0.00,,,0.00,weatherlink.com 1.10,2013-03-24 16:32:00,
2013-03-24 11:47:00,30.5,29.0,29.69,ENE,57,17.0,21.0,94,0.00,,,0.00,weatherlink.com 1.10,2013-03-24 16:47:00,
2013-03-24 12:02:00,30.3,29.0,29.68,NNE,27,19.0,24.0,94,0.00,,,0.00,weatherlink.com 1.10,2013-03-24 17:02:00,
2013-03-24 12:17:00,30.4,29.0,29.66,NNE,29,17.0,22.0,94,0.00,,,0.00,weatherlink.com 1.10,2013-03-24 17:17:00,
2013-03-24 12:32:00,30.5,29.0,29.65,NE,53,9.0,24.0,94,0.00,,,0.00,weatherlink.com 1.10,2013-03-24 17:32:00,
2013-03-24 12:47:00,30.6,29.0,29.65,NNE,30,16.0,24.0,94,0.00,,,0.00,weatherlink.com 1.10,2013-03-24 17:47:00,
2013-03-24 13:02:00,30.8,29.0,29.65,NNE,31,11.0,25.0,94,0.00,,,0.00,weatherlink.com 1.10,2013-03-24 18:02:00,
2013-03-24 13:17:00,30.8,29.0,29.66,NNE,15,13.0,23.0,93,0.00,,,0.00,weatherlink.com 1.10,2013-03-24 18:17:00,
2013-03-24 13:32:00,30.8,29.0,29.67,NNE,28,16.0,19.0,93,0.00,,,0.00,weatherlink.com 1.10,2013-03-24 18:32:00,
2013-03-24 13:47:00,30.9,29.0,29.66,NNE,13,14.0,20.0,92,0.00,,,0.00,weatherlink.com 1.10,2013-03-24 18:47:00,
2013-03-24 14:02:00,30.6,29.0,29.65,NE,37,9.0,19.0,94,0.00,,,0.00,weatherlink.com 1.10,2013-03-24 19:02:00,
2013-03-24 14:17:00,30.3,29.0,29.64,North,9,18.0,18.0,95,0.00,,,0.00,weatherlink.com 1.10,2013-03-24 19:17:00,
2013-03-24 14:32:00,30.3,29.0,29.64,NNE,22,10.0,20.0,96,0.00,,,0.00,weatherlink.com 1.10,2013-03-24 19:32:00,
2013-03-24 14:48:00,30.4,29.0,29.62,NNE,26,10.0,17.0,96,0.00,,,0.00,weatherlink.com 1.10,2013-03-24 19:48:00,
2013-03-24 15:03:00,30.4,29.0,29.62,NNE,19,17.0,21.0,96,0.00,,,0.00,weatherlink.com 1.10,2013-03-24 20:03:00,
2013-03-24 15:18:00,30.4,29.0,29.62,NNE,33,13.0,22.0,96,0.00,,,0.00,weatherlink.com 1.10,2013-03-24 20:18:00,
2013-03-24 15:33:00,30.4,30.0,29.63,NNE,32,9.0,25.0,97,0.00,,,0.00,weatherlink.com 1.10,2013-03-24 20:33:00,
2013-03-24 15:48:00,30.3,30.0,29.63,NNE,15,14.0,21.0,97,0.00,,,0.00,weatherlink.com 1.10,2013-03-24 20:48:00,
2013-03-24 16:03:00,30.2,29.0,29.63,NNE,18,8.0,18.0,96,0.00,,,0.00,weatherlink.com 1.10,2013-03-24 21:03:00,
2013-03-24 16:18:00,30.4,30.0,29.63,NE,41,11.0,16.0,97,0.00,,,0.00,weatherlink.com 1.10,2013-03-24 21:18:00,
2013-03-24 16:33:00,30.3,30.0,29.62,North,5,6.0,17.0,97,0.00,,,0.00,weatherlink.com 1.10,2013-03-24 21:33:00,
2013-03-24 16:48:00,30.2,30.0,29.61,NNE,16,10.0,22.0,97,0.00,,,0.00,weatherlink.com 1.10,2013-03-24 21:48:00,
2013-03-24 17:03:00,30.1,29.0,29.61,North,349,10.0,22.0,97,0.00,,,0.00,weatherlink.com 1.10,2013-03-24 22:03:00,
2013-03-24 17:18:00,30.0,29.0,29.62,North,355,17.0,25.0,97,0.00,,,0.00,weatherlink.com 1.10,2013-03-24 22:18:00,
2013-03-24 17:33:00,29.8,29.0,29.62,NE,36,15.0,20.0,97,0.00,,,0.00,weatherlink.com 1.10,2013-03-24 22:33:00,
2013-03-24 17:48:00,29.9,29.0,29.63,North,5,16.0,22.0,97,0.00,,,0.00,weatherlink.com 1.10,2013-03-24 22:48:00,
2013-03-24 18:03:00,30.0,29.0,29.63,NNE,30,16.0,20.0,97,0.00,,,0.00,weatherlink.com 1.10,2013-03-24 23:03:00,
2013-03-24 18:18:00,30.0,29.0,29.63,NNE,29,16.0,26.0,97,0.00,,,0.00,weatherlink.com 1.10,2013-03-24 23:18:00,
2013-03-24 18:33:00,30.1,29.0,29.64,NNE,22,18.0,22.0,97,0.00,,,0.00,weatherlink.com 1.10,2013-03-24 23:33:00,
2013-03-24 18:48:00,30.1,29.0,29.64,NNE,16,11.0,21.0,97,0.00,,,0.00,weatherlink.com 1.10,2013-03-24 23:48:00,
2013-03-24 19:04:00,30.2,30.0,29.64,NNW,347,17.0,24.0,97,0.00,,,0.00,weatherlink.com 1.10,2013-03-25 00:04:00,
2013-03-24 19:18:00,30.2,30.0,29.65,North,5,17.0,22.0,97,0.00,,,0.00,weatherlink.com 1.10,2013-03-25 00:18:00,
2013-03-24 19:33:00,30.1,29.0,29.65,NNE,13,9.0,24.0,97,0.00,,,0.00,weatherlink.com 1.10,2013-03-25 00:33:00,
2013-03-24 19:48:00,30.2,30.0,29.66,NNW,342,9.0,23.0,97,0.00,,,0.00,weatherlink.com 1.10,2013-03-25 00:48:00,
2013-03-24 20:03:00,30.3,30.0,29.66,North,11,10.0,15.0,97,0.00,,,0.00,weatherlink.com 1.10,2013-03-25 01:03:00,
2013-03-24 20:18:00,30.2,30.0,29.67,North,5,10.0,20.0,97,0.00,,,0.00,weatherlink.com 1.10,2013-03-25 01:18:00,
2013-03-24 20:33:00,30.1,29.0,29.67,NNW,348,17.0,19.0,97,0.00,,,0.00,weatherlink.com 1.10,2013-03-25 01:33:00,
2013-03-24 20:48:00,30.1,29.0,29.68,North,360,6.0,21.0,97,0.00,,,0.00,weatherlink.com 1.10,2013-03-25 01:48:00,
2013-03-24 21:03:00,30.0,29.0,29.68,NNW,340,16.0,23.0,97,0.00,,,0.00,weatherlink.com 1.10,2013-03-25 02:03:00,
2013-03-24 21:18:00,29.8,29.0,29.69,North,9,14.0,22.0,97,0.00,,,0.00,weatherlink.com 1.10,2013-03-25 02:18:00,
2013-03-24 21:48:00,29.6,29.0,29.69,NNW,340,18.0,19.0,97,0.00,,,0.00,weatherlink.com 1.10,2013-03-25 02:48:00,
2013-03-24 22:03:00,29.8,29.0,29.70,NNE,28,8.0,26.0,97,0.00,,,0.00,weatherlink.com 1.10,2013-03-25 03:03:00,
2013-03-24 22:18:00,29.9,29.0,29.70,NW,317,7.0,18.0,97,0.00,,,0.00,weatherlink.com 1.10,2013-03-25 03:18:00,
2013-03-24 22:33:00,29.9,29.0,29.70,NNW,343,11.0,20.0,97,0.00,,,0.00,weatherlink.com 1.10,2013-03-25 03:33:00,
2013-03-24 22:48:00,29.8,29.0,29.70,North,355,10.0,19.0,97,0.00,,,0.00,weatherlink.com 1.10,2013-03-25 03:48:00,
2013-03-24 23:03:00,29.7,29.0,29.70,North,5,10.0,20.0,97,0.00,,,0.00,weatherlink.com 1.10,2013-03-25 04:03:00,
2013-03-24 23:18:00,29.7,29.0,29.70,North,360,14.0,18.0,97,0.00,,,0.00,weatherlink.com 1.10,2013-03-25 04:18:00,
2013-03-24 23:33:00,29.7,29.0,29.70,North,355,7.0,21.0,97,0.00,,,0.00,weatherlink.com 1.10,2013-03-25 04:33:00,
2013-03-24 23:48:00,29.7,29.0,29.70,North,355,6.0,19.0,97,0.00,,,0.00,weatherlink.com 1.10,2013-03-25 04:48:00,